This demonstration page uses our WeatherBlox Daily Observations layout. Learn more.

Left ArrowRight Arrow

39.12711, -84.51439

Hourly Observations for October 31, 2020

Temp ( °F °C ) Dew Point ( °F °C ) Humidity (%) Winds ( mph kmh ) Pressure ( in mb ) Visibility ( mi km ) Precip ( " mm )
12:17 am 00:17 Clear with Mist and Fog 34 1.1 33 0.6 97 97 Calm 30.40 1029 3 5 0.00 0.00
12:33 am 00:33 Clear with Mist and Fog 35 1.7 34 1.1 96 96 Calm 30.40 1030 2 3 0.00 0.00
12:45 am 00:45 Clear with Mist and Fog 33 0.6 33 0.6 100 100 Calm 30.41 1030 1 2 0.00 0.00
12:53 am 00:53 Clear with Mist and Fog 34 1.1 33 0.6 97 97 Calm 30.39 1029 3 5 0.00 0.00
1:03 am 01:03 Mostly Clear with Mist and Fog 33 0.6 32 0 96 96 Calm 30.41 1030 3 4 0.00 0.00
1:08 am 01:08 Mostly Cloudy with Mist and Fog 33 0.6 32 0 96 96 Calm 30.42 1030 1 2 0.00 0.00
1:15 am 01:15 Mostly Cloudy with Fog 33 0.6 31 -0.6 92 92 Calm 30.42 1030 1 1 0.00 0.00
1:34 am 01:34 Clear with Mist and Fog 33 0.6 31 -0.6 92 92 Calm 30.42 1030 1 2 0.00 0.00
1:37 am 01:37 Mostly Cloudy with Mist and Fog 33 0.6 31 -0.6 92 92 Calm 30.42 1030 1 1 0.00 0.00
1:53 am 01:53 Mostly Cloudy with Fog 32 0 32 0 100 100 Calm 30.40 1029 1 1 0.00 0.00
2:07 am 02:07 Clear with Fog 33 0.6 32 0 96 96 Calm 30.42 1030 0 0 0.00 0.00
2:17 am 02:17 Mostly Cloudy with Fog 32 0 32 0 100 100 Calm 30.42 1030 1 1 0.00 0.00
2:26 am 02:26 Mostly Cloudy with Fog 32 0 31 -0.6 96 96 Calm 30.42 1030 0 0 0.00 0.00
2:36 am 02:36 Mostly Cloudy with Fog 32 0 31 -0.6 96 96 Calm 30.42 1030 1 1 0.00 0.00
2:49 am 02:49 Mostly Cloudy with Fog 32 0 32 0 100 100 Calm 30.42 1030 0 0 0.00 0.00
2:53 am 02:53 Mostly Cloudy with Fog 32 0 32 0 100 100 Calm 30.40 1029 0 0 0.00 0.00
3:02 am 03:02 Mostly Cloudy with Fog 32 0 31 -0.6 96 96 Calm 30.42 1030 1 1 0.00 0.00
3:37 am 03:37 Mostly Cloudy with Freezing Fog 31 -0.6 30 -1.1 96 96 Calm 30.42 1030 0 0 0.00 0.00
3:53 am 03:53 Mostly Cloudy with Freezing Fog 31 -0.6 31 -0.6 100 100 Calm 30.39 1029 0 0 0.00 0.00
4:13 am 04:13 Mostly Cloudy with Freezing Fog 31 -0.6 30 -1.1 96 96 Calm 30.42 1030 1 1 0.00 0.00
4:24 am 04:24 Mostly Cloudy with Freezing Fog 31 -0.6 30 -1.1 96 96 Calm 30.42 1030 0 0 0.00 0.00
4:33 am 04:33 Mostly Clear with Freezing Fog 31 -0.6 30 -1.1 96 96 Calm 30.42 1030 N/A 0.00 0.00
4:53 am 04:53 Mostly Clear with Freezing Fog 30 -1.1 29 -1.7 96 96 Calm 30.40 1030 0 0 0.00 0.00
5:03 am 05:03 Mostly Cloudy with Freezing Fog 31 -0.6 30 -1.1 96 96 Calm 30.43 1030 0 0 0.00 0.00
5:35 am 05:35 Mostly Cloudy with Mist and Fog 31 -0.6 30 -1.1 96 96 NE 3 6 30.43 1030 1 1 0.00 0.00
5:39 am 05:39 Partly Cloudy with Mist and Fog 30 -1.1 29 -1.7 96 96 NE 3 6 30.43 1031 1 2 0.00 0.00
5:49 am 05:49 Mostly Cloudy with Mist and Fog 30 -1 28 -2 93 93 Calm 30.44 1031 1 1 0.00 0.00
5:53 am 05:53 Mostly Cloudy with Freezing Fog 30 -1.1 29 -1.7 96 96 Calm 30.42 1030 0 0 0.00 0.00
6:10 am 06:10 Mostly Cloudy with Mist and Fog 29 -1.7 29 -1.7 100 100 NE 3 6 30.44 1031 1 1 0.00 0.00
6:27 am 06:27 Mostly Cloudy with Freezing Fog 30 -1.1 30 -1.1 100 100 Calm 30.45 1031 0 0 0.00 0.00
6:37 am 06:37 Mostly Cloudy with Mist and Fog 31 -0.6 30 -1.1 96 96 NNE 3 6 30.45 1031 1 2 0.00 0.00
6:42 am 06:42 Partly Cloudy with Mist and Fog 30 -1.1 30 -1.1 100 100 NNE 3 6 30.45 1031 2 3 0.00 0.00
6:49 am 06:49 Mostly Cloudy with Mist and Fog 30 -1 28 -2 93 93 NE 3 6 30.45 1031 1 2 0.00 0.00
6:53 am 06:53 Clear with Mist and Fog 28 -2.2 28 -2.2 100 100 NE 3 6 30.43 1031 1 1 0.00 0.00
7:11 am 07:11 Clear with Mist and Fog 30 -1.1 29 -1.7 96 96 NE 3 6 30.45 1031 1 2 0.00 0.00
7:16 am 07:16 Mostly Clear with Mist and Fog 30 -1.1 29 -1.7 96 96 NE 3 6 30.45 1031 1 2 0.00 0.00
7:24 am 07:24 Mostly Cloudy with Freezing Fog 29 -1.7 28 -2.2 96 96 NE 3 6 30.45 1031 1 1 0.00 0.00
7:53 am 07:53 Mostly Cloudy with Freezing Fog 30 -1.1 29 -1.7 96 96 NE 3 6 30.43 1031 1 1 0.00 0.00
8:05 am 08:05 Sunny with Freezing Fog 29 -1.7 28 -2.2 96 96 Calm 30.45 1031 0 0 0.00 0.00
8:53 am 08:53 Sunny with Freezing Fog 31 -0.6 31 -0.6 100 100 Calm 30.43 1031 0 0 0.00 0.00
9:00 am 09:00 Sunny with Mist and Fog 32 0 32 0 100 100 Calm 30.45 1031 1 2 0.00 0.00
9:22 am 09:22 Sunny 33 0.6 33 0.6 100 100 Calm 30.45 1031 9 14 0.00 0.00
9:53 am 09:53 Sunny 37 2.8 35 1.7 93 93 Calm 30.44 1031 10 16 0.00 0.00
10:53 am 10:53 Sunny 44 6.7 37 2.8 76 76 Calm 30.42 1030 10 16 0.00 0.00
11:53 am 11:53 Sunny 50 10 35 1.7 57 57 S 10 17 30.40 1030 10 16 0.00 0.00
12:53 pm 12:53 Sunny 52 11.1 36 2.2 55 55 S 10 17 30.38 1029 10 16 0.00 0.00
1:53 pm 13:53 Sunny 54 12.2 36 2.2 51 51 S 9 15 30.34 1027 10 16 0.00 0.00
2:53 pm 14:53 Sunny 56 13.3 37 2.8 49 49 SSE 10 17 30.30 1026 10 16 0.00 0.00
3:53 pm 15:53 Sunny 57 13.9 37 2.8 47 47 SSE 9 15 30.27 1025 10 16 0.00 0.00
4:53 pm 16:53 Sunny 58 14.4 38 3.3 48 48 S 8 13 30.24 1024 10 16 0.00 0.00
5:53 pm 17:53 Sunny 56 13.3 39 3.9 53 53 S 5 7 30.22 1023 10 16 0.00 0.00
6:53 pm 18:53 Clear 51 10.6 38 3.3 61 61 S 3 6 30.21 1023 10 16 0.00 0.00
7:53 pm 19:53 Clear 46 7.8 40 4.4 79 79 Calm 30.19 1023 10 16 0.00 0.00
8:53 pm 20:53 Clear 43 6.1 40 4.4 89 89 Calm 30.18 1022 10 16 0.00 0.00
9:53 pm 21:53 Clear 43 6.1 40 4.4 89 89 Calm 30.16 1021 10 16 0.00 0.00
10:53 pm 22:53 Clear 42 5.6 40 4.4 92 92 Calm 30.14 1021 10 16 0.00 0.00
11:53 pm 23:53 Clear 43 6.1 39 3.9 86 86 SW 7 11 30.11 1020 10 16 0.00 0.00

Powered by AerisWeather